Content
SEND FEEDBACK

Daily
Averages
Monthly
Summary
United States of America

BERKELEY, MISSOURI


Home > North America > United States > Missouri
Elevation: 172 meters     Latitude: 38 45N     Longitude: 090 22W

WEATHER
 
SELECT A DAY
Number of Records: 203,268;   Date Range: 1/1/95 - 7/7/14
 
SHARE

PRINT THIS DATA

[ ← Previous Day ]
WEATHER ALMANAC - 23 MARCH, 2013
[ Next Day → ]
[ °F ]   °C
Weather ElementAverageHighLow
Temperature7 °C12.2 °C (4:51 pm)3 °C (1:36 am)
Dewpoint-4.1 °C0.6 °C (11:51 pm)-7.2 °C (10:51 am)
Humidity46.5 %68 % (11:51 pm)33 % (12:51 pm)
Barometer1015.2 hPa1018.6 hPa (8:51 am)1011.2 hPa (7:51 pm)
Wind Speed13.8 km/h27.8 km/h (4:51 pm)
Wind Gust38.9 km/h (4:51 pm)
Weather ElementAverage
Visibility16.1 km
Wind DirectionENE (66.8 °)

Weather ElementTotal
Precipitation0.25 mm
Heating Degree Days10.7 (Base 18.3)
Averaged from 25 records on 23 March, 2013
WEATHER CONDITIONS BREAKOUT
WIND DIRECTION BREAKOUT
WEATHER BY HOUR - 23 MARCH, 2013
[ °F ]   °C
Local TimeTemperatureDewpointHumidityBarometerVisibilityWind DirectionWind SpeedGust SpeedPrecipitationEventsConditions
1:36 AM3 °C-6 °C52 %1016.6 hPa16.1 kmEast (90°)9.3 km/hOvercast
1:51 AM3.3 °C-5.6 °C53 %1017.6 hPa16.1 kmEast (80°)7.4 km/hOvercast
2:45 AM3 °C-5 °C56 %1016.6 hPa16.1 kmESE (110°)9.3 km/hOvercast
2:51 AM3.3 °C-5 °C55 %1017.3 hPa16.1 kmESE (110°)7.4 km/hOvercast
3:51 AM3.3 °C-5 °C55 %1016.6 hPa16.1 kmENE (60°)5.6 km/hOvercast
4:51 AM3.3 °C-5.6 °C53 %1016.6 hPa16.1 kmNE (40°)9.3 km/hOvercast
5:51 AM3.3 °C-5.6 °C53 %1016.9 hPa16.1 kmNE (50°)9.3 km/hOvercast
6:51 AM3.3 °C-5.6 °C53 %1017.9 hPa16.1 kmENE (60°)7.4 km/hOvercast
7:51 AM3.3 °C-5.6 °C53 %1017.9 hPa16.1 kmENE (60°)9.3 km/hOvercast
8:51 AM3.9 °C-5.6 °C50 %1018.6 hPa16.1 kmNE (50°)9.3 km/hOvercast
9:51 AM5 °C-6 °C45 %1017.3 hPa16.1 kmENE (70°)16.7 km/hOvercast
10:51 AM6.1 °C-7.2 °C38 %1017.9 hPa16.1 kmEast (80°)16.7 km/hMostly Cloudy
11:51 AM7.8 °C-7.2 °C34 %1017.6 hPa16.1 kmNE (40°)9.3 km/hScattered Clouds
12:51 PM9.4 °C-6.1 °C33 %1016.6 hPa16.1 kmENE (70°)14.8 km/hScattered Clouds
1:51 PM11 °C-4 °C35 %1015.2 hPa16.1 kmNE (50°)13 km/hScattered Clouds
2:51 PM12 °C-4 °C33 %1014.2 hPa16.1 kmNE (40°)18.5 km/h27.8 km/hScattered Clouds
3:51 PM11.7 °C-3.3 °C35 %1013.2 hPa16.1 kmENE (70°)18.5 km/hMostly Cloudy
4:51 PM12.2 °C-2.2 °C37 %1012.5 hPa16.1 kmENE (70°)27.8 km/h38.9 km/hMostly Cloudy
5:51 PM11.7 °C-2.2 °C38 %1011.9 hPa16.1 kmEast (100°)20.4 km/hMostly Cloudy
6:51 PM11.1 °C-1.7 °C41 %1012.2 hPa16.1 kmEast (80°)18.5 km/h0 mmRainLight Rain
7:51 PM10 °C0 °C50 %1011.2 hPa16.1 kmENE (70°)18.5 km/h0.25 mmOvercast
8:51 PM10 °C-1.7 °C44 %1011.2 hPa16.1 kmENE (60°)16.7 km/hOvercast
9:51 PM9.4 °C-1.7 °C46 %1011.2 hPa16.1 kmENE (60°)11.1 km/h0 mmOvercast
10:51 PM8.3 °C-1.1 °C52 %1011.9 hPa16.1 kmENE (60°)18.5 km/h0 mmRainLight Rain
11:51 PM6.1 °C0.6 °C68 %1011.5 hPa14.5 kmNE (40°)24.1 km/h33.3 km/h0 mmRainLight Rain
Hourly data recorded from KSTL, located 0 kilometers away from Berkeley, Missouri







STORIES FROM OUR PARTNERS